| time (UTC) | temp F | wind direction | speed MPH | gust MPH | rain 1hr in | rain 24hr in | rain mn in | humidity % | barometer mb |
| 20260901172149 | 89 | 140 | 0.0 | 0.0 | 0.00 | 0.00 | 0.00 | 73 | 1015.6 |
| 20260901171643 | 88 | 140 | 0.0 | 0.0 | 0.00 | 0.00 | 0.00 | 77 | 1015.6 |
| 20260901171142 | 87 | 139 | 0.0 | 0.0 | 0.00 | 0.00 | 0.00 | 77 | 1015.8 |
| 20260901170642 | 87 | 139 | 0.0 | 0.0 | 0.00 | 0.00 | 0.00 | 77 | 1015.5 |
| 20260901170137 | 88 | 139 | 0.0 | 0.0 | 0.00 | 0.00 | 0.00 | 76 | 1015.8 |
| 20260901165636 | 88 | 139 | 0.0 | 0.0 | 0.00 | 0.00 | 0.00 | 75 | 1015.7 |
| 20260901165131 | 88 | 139 | 0.0 | 0.0 | 0.00 | 0.00 | 0.00 | 77 | 1015.6 |
| 20260901164627 | 87 | 138 | 0.0 | 0.0 | 0.00 | 0.00 | 0.00 | 75 | 1015.5 |
| 20260901164122 | 88 | 139 | 0.0 | 0.0 | 0.00 | 0.00 | 0.00 | 75 | 1015.7 |
| 20260901163618 | 87 | 139 | 0.0 | 0.0 | 0.00 | 0.00 | 0.00 | 78 | 1015.6 |
| 20260901163116 | 86 | 139 | 0.0 | 0.0 | 0.00 | 0.00 | 0.00 | 81 | 1015.8 |
| 20260901162612 | 86 | 138 | 0.0 | 0.0 | 0.00 | 0.00 | 0.00 | 81 | 1015.7 |
| 20260901162111 | 86 | 138 | 0.0 | 0.0 | 0.00 | 0.00 | 0.00 | 80 | 1016.2 |
| 20260901161610 | 85 | 137 | 0.0 | 0.0 | 0.00 | 0.00 | 0.00 | 82 | 1016.0 |
| 20260901161104 | 84 | 137 | 0.0 | 0.0 | 0.00 | 0.00 | 0.00 | 84 | 1016.0 |
| 20260901160601 | 84 | 131 | 0.0 | 0.0 | 0.00 | 0.00 | 0.00 | 83 | 1016.1 |
| 20260901160056 | 83 | 127 | 0.0 | 1.0 | 0.00 | 0.00 | 0.00 | 84 | 1016.1 |
| 20260901155554 | 83 | 126 | 0.0 | 0.0 | 0.00 | 0.00 | 0.00 | 84 | 1016.1 |
| 20260901155051 | 83 | 152 | 0.0 | 0.0 | 0.00 | 0.00 | 0.00 | 84 | 1016.2 |
| 20260901154550 | 83 | 152 | 0.0 | 0.0 | 0.00 | 0.00 | 0.00 | 84 | 1015.8 |
| 20260901154045 | 83 | 152 | 0.0 | 0.0 | 0.00 | 0.00 | 0.00 | 85 | 1015.8 |
| 20260901153546 | 83 | 152 | 0.0 | 0.0 | 0.00 | 0.00 | 0.00 | 84 | 1016.0 |
| 20260901153040 | 83 | 152 | 0.0 | 0.0 | 0.00 | 0.00 | 0.00 | 84 | 1016.0 |
| 20260901152534 | 83 | 152 | 0.0 | 0.0 | 0.00 | 0.00 | 0.00 | 84 | 1015.8 |
| 20260901152033 | 83 | 152 | 0.0 | 0.0 | 0.00 | 0.00 | 0.00 | 85 | 1015.7 |
| 20260901151529 | 83 | 152 | 0.0 | 0.0 | 0.00 | 0.00 | 0.00 | 84 | 1016.0 |
| 20260901151028 | 83 | 152 | 0.0 | 0.0 | 0.00 | 0.00 | 0.00 | 84 | 1016.0 |
| 20260901150526 | 82 | 153 | 0.0 | 0.0 | 0.00 | 0.00 | 0.00 | 85 | 1015.8 |
| 20260901150025 | 82 | 152 | 0.0 | 0.0 | 0.00 | 0.00 | 0.00 | 86 | 1015.8 |
| 20260901145519 | 81 | 152 | 0.0 | 0.0 | 0.00 | 0.00 | 0.00 | 87 | 1015.8 |
| 20260901145018 | 81 | 152 | 0.0 | 0.0 | 0.00 | 0.00 | 0.00 | 88 | 1016.0 |
| 20260901144514 | 80 | 152 | 0.0 | 0.0 | 0.00 | 0.00 | 0.00 | 89 | 1016.2 |
| 20260901144009 | 80 | 152 | 0.0 | 0.0 | 0.00 | 0.00 | 0.00 | 89 | 1015.8 |
| 20260901143505 | 80 | 152 | 0.0 | 0.0 | 0.00 | 0.00 | 0.00 | 89 | 1015.8 |
| 20260901143001 | 80 | 152 | 0.0 | 0.0 | 0.00 | 0.00 | 0.00 | 88 | 1015.8 |
| 20260901142455 | 80 | 152 | 0.0 | 0.0 | 0.00 | 0.00 | 0.00 | 88 | 1015.7 |
| 20260901141950 | 80 | 152 | 0.0 | 0.0 | 0.00 | 0.00 | 0.00 | 89 | 1015.7 |
| 20260901141445 | 80 | 152 | 0.0 | 0.0 | 0.00 | 0.00 | 0.00 | 88 | 1016.0 |
| 20260901140940 | 80 | 152 | 0.0 | 0.0 | 0.00 | 0.00 | 0.00 | 88 | 1015.8 |
| 20260901140438 | 80 | 152 | 0.0 | 0.0 | 0.00 | 0.00 | 0.00 | 90 | 1015.8 |
| 20260901135933 | 79 | 152 | 0.0 | 0.0 | 0.00 | 0.00 | 0.00 | 89 | 1016.0 |
| 20260901135427 | 79 | 152 | 0.0 | 0.0 | 0.00 | 0.00 | 0.00 | 90 | 1016.0 |
| 20260901134923 | 79 | 152 | 0.0 | 0.0 | 0.00 | 0.00 | 0.00 | 90 | 1015.7 |
| 20260901134418 | 78 | 152 | 0.0 | 0.0 | 0.00 | 0.00 | 0.00 | 91 | 1015.7 |
| 20260901133918 | 78 | 152 | 0.0 | 0.0 | 0.00 | 0.00 | 0.00 | 91 | 1015.8 |
| 20260901133412 | 78 | 152 | 0.0 | 0.0 | 0.00 | 0.00 | 0.00 | 91 | 1015.7 |
| 20260901132911 | 78 | 152 | 0.0 | 0.0 | 0.00 | 0.00 | 0.00 | 92 | 1016.0 |
| 20260901132406 | 77 | 152 | 0.0 | 0.0 | 0.00 | 0.00 | 0.00 | 92 | 1015.8 |
| 20260901131904 | 77 | 152 | 0.0 | 0.0 | 0.00 | 0.00 | 0.00 | 93 | 1015.7 |
| 20260901131404 | 76 | 152 | 0.0 | 0.0 | 0.00 | 0.00 | 0.00 | 94 | 1015.8 |
| 20260901130900 | 76 | 152 | 0.0 | 0.0 | 0.00 | 0.00 | 0.00 | 95 | 1015.6 |
| 20260901130354 | 76 | 152 | 0.0 | 0.0 | 0.00 | 0.00 | 0.00 | 95 | 1015.7 |
| 20260901125852 | 75 | 152 | 0.0 | 0.0 | 0.00 | 0.00 | 0.00 | 96 | 1016.0 |
| 20260901125351 | 75 | 152 | 0.0 | 0.0 | 0.00 | 0.00 | 0.00 | 96 | 1015.8 |
| 20260901124846 | 75 | 152 | 0.0 | 0.0 | 0.00 | 0.00 | 0.00 | 97 | 1015.8 |
| 20260901124342 | 75 | 152 | 0.0 | 0.0 | 0.00 | 0.00 | 0.00 | 97 | 1015.8 |
| 20260901123841 | 74 | 152 | 0.0 | 0.0 | 0.00 | 0.00 | 0.00 | 97 | 1015.8 |
| 20260901123336 | 74 | 152 | 0.0 | 0.0 | 0.00 | 0.00 | 0.00 | 98 | 1015.6 |
| 20260901122834 | 74 | 152 | 0.0 | 0.0 | 0.00 | 0.00 | 0.00 | 98 | 1015.7 |
| 20260901122329 | 74 | 152 | 0.0 | 0.0 | 0.00 | 0.00 | 0.00 | 98 | 1015.6 |
| 20260901121828 | 74 | 152 | 0.0 | 0.0 | 0.00 | 0.00 | 0.00 | 98 | 1015.7 |
| 20260901121324 | 73 | 152 | 0.0 | 0.0 | 0.00 | 0.00 | 0.00 | 98 | 1015.6 |
| 20260901120819 | 73 | 152 | 0.0 | 0.0 | 0.00 | 0.00 | 0.00 | 98 | 1015.5 |
| 20260901120313 | 73 | 152 | 0.0 | 0.0 | 0.00 | 0.00 | 0.00 | 98 | 1015.5 |
| 20260901115809 | 72 | 152 | 0.0 | 0.0 | 0.00 | 0.00 | 0.00 | 98 | 1015.5 |
| 20260901115306 | 72 | 152 | 0.0 | 0.0 | 0.00 | 0.00 | 0.00 | 98 | 1015.2 |
| 20260901114802 | 72 | 152 | 0.0 | 0.0 | 0.00 | 0.00 | 0.00 | 98 | 1015.3 |
| 20260901114257 | 72 | 153 | 0.0 | 0.0 | 0.00 | 0.00 | 0.00 | 98 | 1015.1 |
| 20260901113755 | 72 | 153 | 0.0 | 0.0 | 0.00 | 0.00 | 0.00 | 98 | 1015.3 |
| 20260901113249 | 72 | 153 | 0.0 | 0.0 | 0.00 | 0.00 | 0.00 | 98 | 1014.9 |
| 20260901112744 | 72 | 153 | 0.0 | 0.0 | 0.00 | 0.00 | 0.00 | 98 | 1015.0 |
| 20260901112244 | 72 | 153 | 0.0 | 0.0 | 0.00 | 0.00 | 0.00 | 98 | 1014.9 |
| 20260901111739 | 72 | 153 | 0.0 | 0.0 | 0.00 | 0.00 | 0.00 | 98 | 1014.8 |
| 20260901111237 | 72 | 153 | 0.0 | 0.0 | 0.00 | 0.00 | 0.00 | 98 | 1014.7 |
| 20260901110732 | 72 | 153 | 0.0 | 0.0 | 0.00 | 0.00 | 0.00 | 98 | 1014.7 |
| 20260901110227 | 72 | 153 | 0.0 | 0.0 | 0.00 | 0.00 | 0.00 | 98 | 1014.7 |
| 20260901105724 | 72 | 153 | 0.0 | 0.0 | 0.00 | 0.00 | 0.00 | 98 | 1014.6 |
| 20260901105223 | 72 | 153 | 0.0 | 0.0 | 0.00 | 0.00 | 0.00 | 98 | 1014.8 |
| 20260901104720 | 72 | 153 | 0.0 | 0.0 | 0.00 | 0.00 | 0.00 | 98 | 1014.8 |
| 20260901104215 | 72 | 153 | 0.0 | 0.0 | 0.00 | 0.00 | 0.00 | 98 | 1014.6 |
| 20260901103714 | 72 | 153 | 0.0 | 0.0 | 0.00 | 0.00 | 0.00 | 97 | 1014.7 |
| 20260901103209 | 72 | 153 | 0.0 | 0.0 | 0.00 | 0.00 | 0.00 | 98 | 1014.7 |
| 20260901102704 | 72 | 153 | 0.0 | 0.0 | 0.00 | 0.00 | 0.00 | 98 | 1014.6 |
| 20260901102203 | 72 | 153 | 0.0 | 0.0 | 0.00 | 0.00 | 0.00 | 98 | 1014.5 |
| 20260901101659 | 72 | 153 | 0.0 | 0.0 | 0.00 | 0.00 | 0.00 | 98 | 1014.5 |
| 20260901101158 | 73 | 153 | 0.0 | 0.0 | 0.00 | 0.00 | 0.00 | 98 | 1014.6 |
| 20260901100653 | 72 | 152 | 0.0 | 0.0 | 0.00 | 0.00 | 0.00 | 98 | 1014.5 |
| 20260901100148 | 72 | 153 | 0.0 | 0.0 | 0.00 | 0.00 | 0.00 | 98 | 1014.5 |
| 20260901095646 | 72 | 153 | 0.0 | 0.0 | 0.00 | 0.00 | 0.00 | 98 | 1014.6 |
| 20260901095144 | 72 | 153 | 0.0 | 0.0 | 0.00 | 0.00 | 0.00 | 98 | 1014.5 |
| 20260901094639 | 72 | 153 | 0.0 | 0.0 | 0.00 | 0.00 | 0.00 | 97 | 1014.6 |
| 20260901094138 | 71 | 153 | 0.0 | 0.0 | 0.00 | 0.00 | 0.00 | 97 | 1014.6 |
| 20260901093633 | 71 | 153 | 0.0 | 0.0 | 0.00 | 0.00 | 0.00 | 97 | 1014.5 |
| 20260901093132 | 71 | 153 | 0.0 | 0.0 | 0.00 | 0.00 | 0.00 | 97 | 1014.7 |
| 20260901092628 | 71 | 153 | 0.0 | 0.0 | 0.00 | 0.00 | 0.00 | 97 | 1014.7 |
| 20260901092124 | 71 | 152 | 0.0 | 0.0 | 0.00 | 0.00 | 0.00 | 97 | 1014.7 |
| 20260901091620 | 71 | 153 | 0.0 | 0.0 | 0.00 | 0.00 | 0.00 | 97 | 1014.9 |
| 20260901091115 | 71 | 153 | 0.0 | 0.0 | 0.00 | 0.00 | 0.00 | 97 | 1014.6 |
| 20260901090615 | 71 | 153 | 0.0 | 0.0 | 0.00 | 0.00 | 0.00 | 97 | 1014.6 |
| 20260901090111 | 71 | 153 | 0.0 | 0.0 | 0.00 | 0.00 | 0.00 | 97 | 1014.5 |
| 20260901085607 | 72 | 152 | 0.0 | 0.0 | 0.00 | 0.00 | 0.00 | 97 | 1014.7 |
| 20260901085102 | 71 | 153 | 0.0 | 0.0 | 0.00 | 0.00 | 0.00 | 97 | 1014.5 |
| 20260901084558 | 71 | 152 | 0.0 | 0.0 | 0.00 | 0.00 | 0.00 | 97 | 1014.6 |
| 20260901084055 | 71 | 152 | 0.0 | 0.0 | 0.00 | 0.00 | 0.00 | 96 | 1014.6 |
| 20260901083554 | 71 | 153 | 0.0 | 0.0 | 0.00 | 0.00 | 0.00 | 96 | 1014.6 |
| 20260901083052 | 71 | 153 | 0.0 | 0.0 | 0.00 | 0.00 | 0.00 | 96 | 1014.6 |
| 20260901082547 | 72 | 152 | 0.0 | 0.0 | 0.00 | 0.00 | 0.00 | 96 | 1014.5 |
| 20260901082043 | 72 | 152 | 0.0 | 0.0 | 0.00 | 0.00 | 0.00 | 96 | 1014.6 |
| 20260901081537 | 72 | 152 | 0.0 | 0.0 | 0.00 | 0.00 | 0.00 | 96 | 1014.4 |
| 20260901081032 | 72 | 153 | 0.0 | 0.0 | 0.00 | 0.00 | 0.00 | 96 | 1014.4 |
| 20260901080532 | 72 | 152 | 0.0 | 0.0 | 0.00 | 0.00 | 0.00 | 96 | 1014.4 |
| 20260901080026 | 72 | 153 | 0.0 | 0.0 | 0.00 | 0.00 | 0.00 | 96 | 1014.7 |
| 20260901075522 | 72 | 153 | 0.0 | 0.0 | 0.00 | 0.00 | 0.00 | 96 | 1014.5 |
| 20260901075021 | 72 | 152 | 0.0 | 0.0 | 0.00 | 0.00 | 0.00 | 96 | 1014.4 |
| 20260901074520 | 72 | 153 | 0.0 | 0.0 | 0.00 | 0.00 | 0.00 | 96 | 1014.4 |
| 20260901074016 | 72 | 153 | 0.0 | 0.0 | 0.00 | 0.00 | 0.00 | 96 | 1014.3 |
| 20260901073513 | 72 | 152 | 0.0 | 0.0 | 0.00 | 0.00 | 0.00 | 96 | 1014.4 |
| 20260901073013 | 72 | 153 | 0.0 | 0.0 | 0.00 | 0.00 | 0.00 | 96 | 1014.5 |
| 20260901072507 | 72 | 153 | 0.0 | 0.0 | 0.00 | 0.00 | 0.00 | 96 | 1014.5 |
| 20260901071957 | 72 | 153 | 0.0 | 0.0 | 0.00 | 0.00 | 0.00 | 96 | 1014.3 |
| 20260901071456 | 72 | 153 | 0.0 | 0.0 | 0.00 | 0.00 | 0.00 | 96 | 1014.2 |
| 20260901070955 | 73 | 153 | 0.0 | 0.0 | 0.00 | 0.00 | 0.00 | 96 | 1014.4 |
| 20260901070451 | 73 | 153 | 0.0 | 0.0 | 0.00 | 0.00 | 0.00 | 96 | 1014.3 |
| 20260901065949 | 73 | 153 | 0.0 | 0.0 | 0.00 | 0.00 | 0.00 | 96 | 1014.5 |
| 20260901065445 | 73 | 153 | 0.0 | 0.0 | 0.00 | 0.00 | 0.00 | 96 | 1014.5 |
| 20260901064940 | 73 | 153 | 0.0 | 0.0 | 0.00 | 0.00 | 0.00 | 95 | 1014.6 |
| 20260901064436 | 72 | 153 | 0.0 | 0.0 | 0.00 | 0.00 | 0.00 | 95 | 1014.5 |
| 20260901063933 | 73 | 153 | 0.0 | 0.0 | 0.00 | 0.00 | 0.00 | 95 | 1014.4 |
| 20260901063429 | 73 | 153 | 0.0 | 0.0 | 0.00 | 0.00 | 0.00 | 95 | 1014.5 |
| 20260901062925 | 73 | 153 | 0.0 | 0.0 | 0.00 | 0.00 | 0.00 | 95 | 1014.4 |
| 20260901062421 | 73 | 153 | 0.0 | 0.0 | 0.00 | 0.00 | 0.00 | 95 | 1014.5 |
| 20260901061916 | 73 | 153 | 0.0 | 0.0 | 0.00 | 0.00 | 0.00 | 95 | 1014.6 |
| 20260901061412 | 73 | 153 | 0.0 | 0.0 | 0.00 | 0.00 | 0.00 | 95 | 1014.4 |
| 20260901060907 | 73 | 153 | 0.0 | 0.0 | 0.00 | 0.00 | 0.00 | 95 | 1014.6 |
| 20260901060403 | 73 | 153 | 0.0 | 0.0 | 0.00 | 0.00 | 0.00 | 95 | 1014.3 |
| 20260901055902 | 73 | 152 | 0.0 | 0.0 | 0.00 | 0.00 | 0.00 | 95 | 1014.3 |
| 20260901055358 | 73 | 153 | 0.0 | 0.0 | 0.00 | 0.00 | 0.00 | 95 | 1014.5 |
| 20260901054855 | 73 | 153 | 0.0 | 0.0 | 0.00 | 0.00 | 0.00 | 94 | 1014.4 |
| 20260901054352 | 73 | 153 | 0.0 | 0.0 | 0.00 | 0.00 | 0.00 | 94 | 1014.5 |
| 20260901053847 | 73 | 153 | 0.0 | 0.0 | 0.00 | 0.00 | 0.00 | 94 | 1014.4 |
| 20260901053343 | 73 | 152 | 0.0 | 0.0 | 0.00 | 0.00 | 0.00 | 94 | 1014.5 |
| 20260901052838 | 74 | 152 | 0.0 | 0.0 | 0.00 | 0.00 | 0.00 | 94 | 1014.6 |
| 20260901052333 | 74 | 152 | 0.0 | 0.0 | 0.00 | 0.00 | 0.00 | 94 | 1014.5 |
| 20260901051832 | 74 | 152 | 0.0 | 0.0 | 0.00 | 0.00 | 0.00 | 94 | 1014.6 |
| 20260901051327 | 74 | 152 | 0.0 | 0.0 | 0.00 | 0.00 | 0.00 | 94 | 1014.4 |
| 20260901050822 | 74 | 152 | 0.0 | 0.0 | 0.00 | 0.00 | 0.00 | 94 | 1014.6 |
| 20260901050313 | 74 | 152 | 0.0 | 0.0 | 0.00 | 0.00 | 0.00 | 94 | 1014.6 |
| 20260901045808 | 74 | 152 | 0.0 | 0.0 | 0.00 | 0.00 | 0.00 | 94 | 1014.5 |
| 20260901045307 | 74 | 152 | 0.0 | 0.0 | 0.00 | 0.00 | 0.00 | 94 | 1014.6 |
| 20260901044803 | 74 | 152 | 0.0 | 0.0 | 0.00 | 0.00 | 0.00 | 94 | 1014.6 |
| 20260901044259 | 74 | 152 | 0.0 | 0.0 | 0.00 | 0.00 | 0.00 | 94 | 1014.5 |
| 20260901043754 | 74 | 152 | 0.0 | 0.0 | 0.00 | 0.00 | 0.00 | 93 | 1014.7 |
| 20260901043250 | 74 | 153 | 0.0 | 0.0 | 0.00 | 0.00 | 0.00 | 93 | 1014.7 |
| 20260901042749 | 74 | 153 | 0.0 | 0.0 | 0.00 | 0.00 | 0.00 | 93 | 1014.6 |
| 20260901042244 | 74 | 152 | 0.0 | 0.0 | 0.00 | 0.00 | 0.00 | 93 | 1014.8 |
| 20260901041740 | 74 | 152 | 0.0 | 0.0 | 0.00 | 0.00 | 0.00 | 93 | 1014.7 |
| 20260901041240 | 74 | 152 | 0.0 | 0.0 | 0.00 | 0.00 | 0.00 | 93 | 1014.8 |
| 20260901040735 | 75 | 153 | 0.0 | 0.0 | 0.00 | 0.00 | 0.00 | 92 | 1014.7 |
| 20260901040234 | 75 | 153 | 0.0 | 0.0 | 0.00 | 0.00 | 0.00 | 92 | 1014.8 |
| 20260901035732 | 75 | 153 | 0.0 | 0.0 | 0.00 | 0.32 | 0.32 | 92 | 1014.7 |
| 20260901035226 | 75 | 153 | 0.0 | 0.0 | 0.00 | 0.32 | 0.32 | 92 | 1014.7 |
| 20260901034719 | 75 | 153 | 0.0 | 0.0 | 0.00 | 0.32 | 0.32 | 92 | 1014.6 |
| 20260901034214 | 75 | 153 | 0.0 | 0.0 | 0.00 | 0.32 | 0.32 | 92 | 1014.7 |
| 20260901033714 | 75 | 153 | 0.0 | 0.0 | 0.00 | 0.32 | 0.32 | 92 | 1014.8 |
| 20260901033213 | 75 | 153 | 0.0 | 0.0 | 0.00 | 0.32 | 0.32 | 91 | 1014.8 |
| 20260901032713 | 75 | 153 | 0.0 | 0.0 | 0.00 | 0.32 | 0.32 | 91 | 1014.9 |
| 20260901032212 | 75 | 153 | 0.0 | 0.0 | 0.00 | 0.32 | 0.32 | 91 | 1014.9 |
| 20260901031708 | 76 | 153 | 0.0 | 0.0 | 0.00 | 0.32 | 0.32 | 90 | 1014.8 |
| 20260901031203 | 76 | 153 | 0.0 | 0.0 | 0.00 | 0.32 | 0.32 | 90 | 1014.7 |
| 20260901030658 | 76 | 153 | 0.0 | 0.0 | 0.00 | 0.32 | 0.32 | 90 | 1014.9 |
| 20260901030153 | 76 | 153 | 0.0 | 0.0 | 0.00 | 0.32 | 0.32 | 90 | 1014.9 |
| 20260901025648 | 76 | 153 | 0.0 | 0.0 | 0.00 | 0.32 | 0.32 | 90 | 1014.8 |
| 20260901025142 | 76 | 153 | 0.0 | 0.0 | 0.00 | 0.32 | 0.32 | 90 | 1014.7 |
| 20260901024636 | 76 | 153 | 0.0 | 0.0 | 0.00 | 0.32 | 0.32 | 90 | 1014.6 |
| 20260901024136 | 76 | 153 | 0.0 | 0.0 | 0.00 | 0.32 | 0.32 | 90 | 1014.9 |
| 20260901023634 | 76 | 153 | 0.0 | 0.0 | 0.00 | 0.32 | 0.32 | 90 | 1015.0 |
| 20260901023129 | 76 | 153 | 0.0 | 0.0 | 0.00 | 0.32 | 0.32 | 90 | 1014.8 |
| 20260901022624 | 76 | 153 | 0.0 | 0.0 | 0.00 | 0.32 | 0.32 | 89 | 1015.0 |
| 20260901022119 | 76 | 153 | 0.0 | 0.0 | 0.00 | 0.32 | 0.32 | 89 | 1014.8 |
| 20260901021615 | 77 | 153 | 0.0 | 0.0 | 0.00 | 0.32 | 0.32 | 88 | 1014.8 |
| 20260901021110 | 77 | 153 | 0.0 | 0.0 | 0.00 | 0.32 | 0.32 | 87 | 1014.9 |
| 20260901020606 | 77 | 153 | 0.0 | 0.0 | 0.00 | 0.32 | 0.32 | 87 | 1014.9 |
| 20260901020101 | 77 | 153 | 0.0 | 0.0 | 0.00 | 0.32 | 0.32 | 87 | 1014.9 |
| 20260901015556 | 78 | 152 | 0.0 | 0.0 | 0.00 | 0.32 | 0.32 | 87 | 1014.7 |
| 20260901015056 | 78 | 153 | 0.0 | 0.0 | 0.00 | 0.32 | 0.32 | 86 | 1014.8 |
| 20260901014551 | 78 | 153 | 0.0 | 0.0 | 0.00 | 0.32 | 0.32 | 85 | 1014.7 |
| 20260901014047 | 78 | 153 | 0.0 | 0.0 | 0.00 | 0.32 | 0.32 | 85 | 1014.6 |
| 20260901013543 | 78 | 152 | 0.0 | 0.0 | 0.00 | 0.32 | 0.32 | 85 | 1014.4 |
| 20260901013038 | 79 | 153 | 0.0 | 0.0 | 0.00 | 0.32 | 0.32 | 84 | 1014.2 |
| 20260901012538 | 79 | 153 | 0.0 | 0.0 | 0.00 | 0.32 | 0.32 | 84 | 1014.1 |
| 20260901012033 | 79 | 153 | 0.0 | 0.0 | 0.00 | 0.32 | 0.32 | 83 | 1014.3 |
| 20260901011530 | 79 | 152 | 0.0 | 0.0 | 0.00 | 0.32 | 0.32 | 83 | 1014.1 |
| 20260901011027 | 79 | 152 | 0.0 | 0.0 | 0.00 | 0.32 | 0.32 | 83 | 1014.0 |
| 20260901010522 | 79 | 152 | 0.0 | 0.0 | 0.00 | 0.32 | 0.32 | 82 | 1014.0 |
| 20260901010022 | 80 | 152 | 0.0 | 0.0 | 0.00 | 0.32 | 0.32 | 82 | 1013.8 |
| 20260901005522 | 80 | 152 | 0.0 | 0.0 | 0.00 | 0.32 | 0.32 | 82 | 1014.0 |
| 20260901005017 | 80 | 152 | 0.0 | 0.0 | 0.00 | 0.32 | 0.32 | 82 | 1013.9 |
| 20260901004517 | 80 | 153 | 0.0 | 0.0 | 0.00 | 0.32 | 0.32 | 81 | 1013.8 |
| 20260901004012 | 80 | 152 | 0.0 | 0.0 | 0.00 | 0.32 | 0.32 | 81 | 1013.9 |
| 20260901003507 | 80 | 152 | 0.0 | 0.0 | 0.00 | 0.32 | 0.32 | 80 | 1013.7 |
| 20260901003005 | 80 | 152 | 0.0 | 0.0 | 0.00 | 0.32 | 0.32 | 80 | 1013.6 |
| 20260901002505 | 81 | 152 | 0.0 | 0.0 | 0.00 | 0.32 | 0.32 | 80 | 1013.7 |
| 20260901002000 | 81 | 152 | 0.0 | 0.0 | 0.00 | 0.32 | 0.32 | 80 | 1013.7 |
| 20260901001455 | 81 | 152 | 0.0 | 0.0 | 0.00 | 0.32 | 0.32 | 80 | 1013.7 |
| 20260901000950 | 81 | 152 | 0.0 | 0.0 | 0.00 | 0.32 | 0.32 | 79 | 1013.7 |
| 20260901000439 | 81 | 152 | 0.0 | 0.0 | 0.00 | 0.32 | 0.32 | 80 | 1013.7 |
| 20260831235939 | 81 | 152 | 0.0 | 0.0 | 0.00 | 0.32 | 0.32 | 79 | 1013.7 |
| 20260831235434 | 81 | 152 | 0.0 | 0.0 | 0.00 | 0.32 | 0.32 | 79 | 1013.9 |
| 20260831234929 | 81 | 152 | 0.0 | 0.0 | 0.00 | 0.32 | 0.32 | 80 | 1013.8 |
| 20260831234424 | 81 | 152 | 0.0 | 0.0 | 0.00 | 0.32 | 0.32 | 79 | 1013.9 |
| 20260831233919 | 81 | 152 | 0.0 | 0.0 | 0.00 | 0.32 | 0.32 | 79 | 1013.8 |
| 20260831233414 | 82 | 153 | 0.0 | 0.0 | 0.00 | 0.32 | 0.32 | 79 | 1013.8 |
| 20260831232910 | 82 | 152 | 0.0 | 0.0 | 0.00 | 0.32 | 0.32 | 78 | 1013.6 |
| 20260831232406 | 82 | 152 | 0.0 | 0.0 | 0.00 | 0.32 | 0.32 | 78 | 1013.5 |
| 20260831231901 | 82 | 153 | 0.0 | 0.0 | 0.00 | 0.32 | 0.32 | 77 | 1013.4 |
| 20260831231357 | 82 | 153 | 0.0 | 0.0 | 0.00 | 0.32 | 0.32 | 78 | 1013.3 |
| 20260831230853 | 82 | 153 | 0.0 | 0.0 | 0.00 | 0.32 | 0.32 | 77 | 1013.3 |
| 20260831230352 | 82 | 152 | 0.0 | 0.0 | 0.00 | 0.32 | 0.32 | 77 | 1013.4 |
| 20260831225847 | 82 | 152 | 0.0 | 0.0 | 0.00 | 0.32 | 0.32 | 77 | 1013.5 |
| 20260831225342 | 82 | 152 | 0.0 | 0.0 | 0.00 | 0.32 | 0.32 | 76 | 1013.5 |
| 20260831224837 | 83 | 152 | 0.0 | 0.0 | 0.00 | 0.32 | 0.32 | 75 | 1013.5 |
| 20260831224332 | 83 | 151 | 0.0 | 0.0 | 0.00 | 0.32 | 0.32 | 75 | 1013.5 |
| 20260831223827 | 83 | 151 | 0.0 | 0.0 | 0.00 | 0.32 | 0.32 | 75 | 1013.3 |
| 20260831223318 | 83 | 151 | 0.0 | 0.0 | 0.00 | 0.32 | 0.32 | 75 | 1013.4 |
| 20260831222814 | 83 | 152 | 0.0 | 0.0 | 0.00 | 0.32 | 0.32 | 75 | 1013.2 |
| 20260831222309 | 83 | 147 | 1.0 | 1.0 | 0.00 | 0.32 | 0.32 | 75 | 1013.2 |
| 20260831221804 | 84 | 147 | 0.0 | 0.0 | 0.00 | 0.32 | 0.32 | 77 | 1013.0 |
| 20260831221255 | 84 | 147 | 0.0 | 0.0 | 0.00 | 0.32 | 0.32 | 76 | 1013.0 |
| 20260831220754 | 84 | 147 | 0.0 | 0.0 | 0.00 | 0.32 | 0.32 | 75 | 1013.2 |
| 20260831220249 | 84 | 147 | 0.0 | 0.0 | 0.00 | 0.32 | 0.32 | 74 | 1013.2 |
| 20260831215744 | 84 | 147 | 0.0 | 0.0 | 0.00 | 0.32 | 0.32 | 73 | 1013.3 |
| 20260831215241 | 84 | 142 | 0.0 | 0.0 | 0.00 | 0.32 | 0.32 | 74 | 1013.1 |
| 20260831214737 | 84 | 142 | 0.0 | 0.0 | 0.00 | 0.32 | 0.32 | 74 | 1013.2 |
| 20260831214234 | 84 | 142 | 0.0 | 0.0 | 0.00 | 0.32 | 0.32 | 72 | 1013.2 |
| 20260831213729 | 85 | 142 | 0.0 | 0.0 | 0.00 | 0.32 | 0.32 | 74 | 1013.0 |
| 20260831213226 | 84 | 142 | 0.0 | 0.0 | 0.00 | 0.32 | 0.32 | 74 | 1013.4 |
| 20260831212720 | 83 | 146 | 0.0 | 0.0 | 0.00 | 0.32 | 0.32 | 75 | 1013.4 |
| 20260831212217 | 83 | 141 | 0.0 | 0.0 | 0.00 | 0.32 | 0.32 | 76 | 1013.3 |
| 20260831211715 | 83 | 141 | 0.0 | 0.0 | 0.00 | 0.32 | 0.32 | 75 | 1013.5 |
| 20260831211211 | 83 | 141 | 0.0 | 0.0 | 0.00 | 0.32 | 0.32 | 74 | 1013.2 |
| 20260831210710 | 83 | 141 | 0.0 | 0.0 | 0.00 | 0.32 | 0.32 | 74 | 1013.3 |
| 20260831210207 | 83 | 141 | 0.0 | 0.0 | 0.00 | 0.32 | 0.32 | 74 | 1013.1 |
| 20260831205706 | 83 | 141 | 0.0 | 0.0 | 0.00 | 0.32 | 0.32 | 74 | 1013.0 |
| 20260831205202 | 83 | 140 | 0.0 | 0.0 | 0.00 | 0.32 | 0.32 | 75 | 1013.1 |
| 20260831204657 | 83 | 140 | 0.0 | 0.0 | 0.00 | 0.32 | 0.32 | 74 | 1013.1 |
| 20260831204155 | 83 | 145 | 0.0 | 0.0 | 0.00 | 0.32 | 0.32 | 74 | 1013.2 |
| 20260831203650 | 83 | 150 | 0.0 | 0.0 | 0.00 | 0.32 | 0.32 | 73 | 1013.0 |
| 20260831203149 | 83 | 150 | 0.0 | 0.0 | 0.00 | 0.32 | 0.32 | 73 | 1013.2 |
| 20260831202648 | 83 | 150 | 0.0 | 0.0 | 0.00 | 0.32 | 0.32 | 73 | 1013.2 |
| 20260831202143 | 82 | 150 | 0.0 | 0.0 | 0.00 | 0.32 | 0.32 | 74 | 1013.5 |
| 20260831201642 | 82 | 150 | 0.0 | 0.0 | 0.00 | 0.32 | 0.32 | 74 | 1013.4 |
| 20260831201137 | 82 | 148 | 0.0 | 0.0 | 0.00 | 0.32 | 0.32 | 73 | 1013.5 |
| 20260831200633 | 83 | 149 | 0.0 | 0.0 | 0.00 | 0.32 | 0.32 | 72 | 1013.2 |
| 20260831200127 | 83 | 134 | 0.0 | 0.0 | 0.00 | 0.32 | 0.32 | 72 | 1013.1 |
| 20260831195623 | 84 | 149 | 0.0 | 0.0 | 0.00 | 0.32 | 0.32 | 71 | 1013.1 |
| 20260831195118 | 84 | 150 | 1.0 | 1.0 | 0.00 | 0.32 | 0.32 | 70 | 1013.2 |
| 20260831194613 | 86 | 149 | 0.0 | 0.0 | 0.00 | 0.32 | 0.32 | 68 | 1013.2 |
| 20260831194107 | 87 | 145 | 0.0 | 0.0 | 0.00 | 0.32 | 0.32 | 66 | 1013.1 |
| 20260831193603 | 87 | 144 | 0.0 | 0.0 | 0.00 | 0.32 | 0.32 | 65 | 1012.9 |
| 20260831193103 | 88 | 144 | 0.0 | 1.0 | 0.00 | 0.32 | 0.32 | 65 | 1013.2 |
| 20260831192558 | 88 | 145 | 0.0 | 0.0 | 0.00 | 0.32 | 0.32 | 65 | 1013.3 |
| 20260831192053 | 88 | 144 | 0.0 | 0.0 | 0.00 | 0.32 | 0.32 | 65 | 1013.2 |
| 20260831191549 | 89 | 145 | 0.0 | 0.0 | 0.00 | 0.32 | 0.32 | 62 | 1013.2 |
| 20260831191045 | 90 | 142 | 0.0 | 0.0 | 0.00 | 0.32 | 0.32 | 63 | 1013.3 |
| 20260831190540 | 89 | 137 | 0.0 | 0.0 | 0.00 | 0.32 | 0.32 | 64 | 1013.3 |
| 20260831190038 | 89 | 144 | 0.0 | 0.0 | 0.00 | 0.32 | 0.32 | 62 | 1013.3 |
| 20260831185535 | 89 | 144 | 0.0 | 0.0 | 0.00 | 0.32 | 0.32 | 61 | 1013.1 |
| 20260831185030 | 89 | 144 | 0.0 | 0.0 | 0.00 | 0.32 | 0.32 | 62 | 1013.2 |
| 20260831184524 | 88 | 144 | 0.0 | 0.0 | 0.00 | 0.32 | 0.32 | 61 | 1013.3 |
| 20260831184020 | 88 | 144 | 1.0 | 2.0 | 0.00 | 0.32 | 0.32 | 62 | 1013.3 |
| 20260831183519 | 88 | 143 | 0.0 | 0.0 | 0.00 | 0.32 | 0.32 | 62 | 1013.4 |
| 20260831183018 | 88 | 147 | 1.0 | 2.0 | 0.00 | 0.32 | 0.32 | 68 | 1013.2 |
| 20260831182513 | 88 | 142 | 0.0 | 0.0 | 0.00 | 0.32 | 0.32 | 65 | 1013.2 |
| 20260831182009 | 88 | 148 | 0.0 | 0.0 | 0.00 | 0.32 | 0.32 | 66 | 1013.3 |
| 20260831181503 | 88 | 143 | 0.0 | 0.0 | 0.00 | 0.32 | 0.32 | 65 | 1013.4 |
| 20260831180958 | 87 | 140 | 0.0 | 0.0 | 0.00 | 0.32 | 0.32 | 68 | 1013.2 |
| 20260831180453 | 87 | 139 | 0.0 | 0.0 | 0.00 | 0.32 | 0.32 | 68 | 1013.1 |
| 20260831175952 | 86 | 147 | 0.0 | 0.0 | 0.00 | 0.32 | 0.32 | 67 | 1013.3 |
| 20260831175449 | 86 | 145 | 0.0 | 0.0 | 0.00 | 0.32 | 0.32 | 67 | 1013.4 |
| 20260831174944 | 86 | 140 | 2.0 | 2.0 | 0.00 | 0.32 | 0.32 | 65 | 1013.5 |
| 20260831174440 | 86 | 167 | 0.0 | 1.0 | 0.00 | 0.32 | 0.32 | 67 | 1013.6 |
| 20260831173939 | 86 | 141 | 0.0 | 0.0 | 0.00 | 0.32 | 0.32 | 66 | 1013.7 |
| 20260831173438 | 86 | 145 | 0.0 | 0.0 | 0.00 | 0.32 | 0.32 | 68 | 1013.7 |
| 20260831172934 | 86 | 149 | 0.0 | 1.0 | 0.00 | 0.32 | 0.32 | 66 | 1013.7 |
| 20260831172430 | 86 | 149 | 0.0 | 0.0 | 0.00 | 0.32 | 0.32 | 66 | 1013.6 |